[[{"header":{"parameterUnit":"m.s-1","parameterCategory":1,"la1":30.2991,"la2":30.254,"lo1":-89.0895,"lo2":-89.0444,"dy":0.0017,"dx":0.0017,"nx":28,"ny":28,"refTime":"2024-05-04T21:00:00:Z","depth":0,"parameterNumber":2,"parameterNumberName":"U-component_of_WINDS"},"data":[0,0,0,0,0,0,0,0,0,0,0,0,0,0,0,0,0,0,0,0,0,0,0,0,0,0,0,0,0,0,0,0,0,0,0,0,0,0,0,0,0,0,0,0,0,0,0,0,0,0,0,0,0,0,0,0,0,0,-1.1169,-1.117,0,-1.1228,-1.1229,-1.123,-1.1245,-1.1245,-1.1245,-1.1244,-1.1307,-1.1309,-1.1311,0,0,0,0,0,0,0,0,0,0,0,0,0,-1.1072,-1.1074,-1.1169,-1.117,-1.117,-1.1228,-1.1229,-1.123,-1.1245,-1.1245,-1.1244,-1.1244,-1.1306,-1.1309,-1.1311,0,0,0,0,0,0,0,0,0,0,0,0,0,-1.1121,-1.1075,-1.1169,-1.1185,-1.1187,-1.1228,-1.1229,-1.123,-1.1245,-1.1245,-1.1244,-1.1244,-1.1306,-1.1309,-1.1312,-1.1341,0,0,-1.1321,-1.1322,0,0,0,0,0,0,0,0,-1.1119,-1.1125,-1.1182,-1.1184,-1.1186,-1.1229,-1.1218,-1.1267,-1.1246,-1.1223,-1.1244,-1.1244,-1.1282,-1.1287,-1.1299,-1.1344,-1.1347,-1.1321,-1.1323,-1.1324,-1.1325,0,0,0,0,0,0,0,-1.1115,-1.1122,-1.1193,-1.1183,-1.1186,-1.1191,-1.1197,-1.1227,-1.1255,-1.1225,-1.1227,-1.1233,-1.1283,-1.1296,-1.1301,-1.1348,-1.1321,-1.1324,-1.1325,-1.1327,-1.1422,-1.1423,0,0,0,0,0,0,-1.1109,-1.1119,-1.1191,-1.1194,-1.115,-1.1193,-1.12,-1.1216,-1.1255,-1.126,-1.1234,-1.1234,-1.1291,-1.1297,-1.1303,-1.1341,-1.1324,-1.1327,-1.1329,-1.1421,-1.1422,-1.1423,0,0,0,0,0,0,-1.1106,-1.1115,-1.1188,-1.1157,-1.1167,-1.1195,-1.1213,-1.1217,-1.1231,-1.1261,-1.1266,-1.1242,-1.1291,-1.1299,-1.1332,-1.1343,-1.1328,-1.1331,-1.142,-1.1421,-1.1422,-1.1417,0,0,0,0,0,0,-1.1104,-1.1114,-1.1125,-1.1157,-1.1169,-1.1215,-1.1214,-1.1219,-1.1235,-1.1236,-1.127,-1.1275,-1.1291,-1.1327,-1.1335,-1.1347,-1.1333,-1.1419,-1.1421,-1.1422,-1.1416,-1.1417,-1.1419,0,0,0,0,0,-1.11,-1.1121,-1.1125,-1.1133,-1.1182,-1.1216,-1.1222,-1.1239,-1.1236,-1.1248,-1.1268,-1.1274,-1.1341,-1.133,-1.1339,-1.1353,-1.1419,-1.142,-1.1422,-1.1415,-1.1417,-1.1419,0,0,0,0,0,0,-1.1089,-1.1125,-1.113,-1.1162,-1.1186,-1.1218,-1.1233,-1.1241,-1.1266,-1.1266,-1.1287,-1.1294,-1.1326,-1.1343,-1.1331,-1.1384,-1.138,-1.1383,-1.1372,-1.1374,-1.1375,-1.1371,-1.1336,0,0,0,0,0,-1.109,-1.1113,-1.1144,-1.1169,-1.1181,-1.1205,-1.122,-1.1231,-1.1257,-1.1267,-1.1289,-1.1315,-1.1342,-1.1359,-1.1385,-1.1419,-1.1427,-1.1432,-1.1434,-1.1435,-1.1437,-1.1458,-1.1461,-1.1428,-1.1428,-1.1428,0,0,-1.1093,-1.1116,-1.1129,-1.1168,-1.1187,-1.1212,-1.1213,-1.1239,-1.1258,-1.1271,-1.1304,-1.1321,-1.1351,-1.1385,-1.1401,-1.14,-1.1448,-1.1437,-1.1437,-1.144,-1.146,-1.1463,-1.1466,-1.1429,-1.1429,-1.1429,0,0,-1.1111,-1.113,-1.1153,-1.1173,-1.1202,-1.1219,-1.1224,-1.1256,-1.1268,-1.1301,-1.1312,-1.1335,-1.1381,-1.1402,-1.1418,-1.1446,-1.1453,-1.1454,-1.1461,-1.148,-1.1483,-1.1485,-1.1496,-1.1499,-1.1456,-1.1456,-1.1456,0,-1.1111,-1.1147,-1.1164,-1.119,-1.1207,-1.122,-1.1245,-1.1264,-1.13,-1.1313,-1.1311,-1.1369,-1.139,-1.1429,-1.1436,-1.1449,-1.1457,-1.145,-1.1481,-1.1484,-1.1486,-1.1496,-1.15,-1.1456,-1.1456,-1.1456,-1.1456,0,-1.1146,-1.1171,-1.1187,-1.1222,-1.1241,-1.1266,-1.1288,-1.1305,-1.1315,-1.1332,-1.1367,-1.1392,-1.1425,-1.1435,-1.1445,-1.1476,-1.1475,-1.1477,-1.1473,-1.1489,-1.1499,-1.1503,-1.1456,-1.1456,-1.1456,-1.1456,0,0,-1.1158,-1.1202,-1.1208,-1.1224,-1.1258,-1.1279,-1.1305,-1.1336,-1.1351,-1.1377,-1.14,-1.1439,-1.1441,-1.146,-1.1473,-1.149,-1.1511,-1.149,-1.1491,-1.1493,-1.1548,-1.1547,-1.1551,-1.1516,-1.1517,-1.1518,-1.1546,0,-1.118,-1.1226,-1.1243,-1.1281,-1.1306,-1.1319,-1.1342,-1.1367,-1.1383,-1.1407,-1.1426,-1.1454,-1.1454,-1.1466,-1.1484,-1.1504,-1.1522,-1.1503,-1.1539,-1.154,-1.1531,-1.1556,-1.1554,-1.158,-1.155,-1.1551,-1.1551,0,-1.1212,-1.1237,-1.1278,-1.131,-1.1321,-1.1341,-1.1371,-1.1394,-1.1422,-1.1433,-1.1455,-1.1467,-1.1496,-1.1491,-1.1532,-1.1519,-1.1535,-1.1548,-1.1549,-1.1553,-1.1546,-1.1561,-1.1588,-1.1592,-1.1557,-1.1557,-1.1556,0,-1.1217,-1.1261,-1.1292,-1.1305,-1.1343,-1.1357,-1.1374,-1.1402,-1.142,-1.1447,-1.1459,-1.1489,-1.1506,-1.153,-1.155,-1.1544,-1.159,-1.1586,-1.1601,-1.1601,-1.161,-1.1609,-1.164,-1.162,-1.162,-1.162,-1.162,0,-1.124,-1.1265,-1.1295,-1.1313,-1.1342,-1.1362,-1.139,-1.1407,-1.1432,-1.1455,-1.1469,-1.1491,-1.1517,-1.1542,-1.1559,-1.1591,-1.1599,-1.1609,-1.1613,-1.1608,-1.1607,-1.1619,-1.1618,-1.1621,-1.1621,-1.1621,-1.162,0,-1.1251,-1.1272,-1.1306,-1.1339,-1.1348,-1.1367,-1.1397,-1.1416,-1.1434,-1.1463,-1.1471,-1.1499,-1.153,-1.1553,-1.1593,-1.1604,-1.1639,-1.1643,-1.1629,-1.1631,-1.1645,-1.1644,-1.1685,-1.1692,-1.1667,-1.1667,-1.1667,0,-1.1264,-1.1284,-1.1319,-1.1335,-1.1352,-1.1377,-1.1396,-1.1417,-1.1436,-1.147,-1.1486,-1.1517,-1.1544,-1.1593,-1.1618,-1.1649,-1.1654,-1.1666,-1.1659,-1.1653,-1.1655,-1.1654,-1.1656,-1.1668,-1.1668,-1.1668,-1.1668,0,-1.1287,-1.1296,-1.1322,-1.1351,-1.1372,-1.1397,-1.1421,-1.1434,-1.146,-1.1481,-1.1512,-1.1533,-1.1574,-1.1605,-1.1639,-1.1658,-1.1668,-1.167,-1.1675,-1.167,-1.1662,-1.1667,-1.1633,-1.1669,-1.1669,-1.1669,-1.1669,-1.1669,-1.13,-1.1318,-1.1345,-1.1374,-1.1394,-1.1417,-1.1437,-1.1458,-1.1484,-1.1518,-1.1529,-1.1562,-1.1592,-1.1638,-1.1657,-1.1684,-1.1684,-1.1691,-1.1693,-1.1695,-1.1695,-1.1657,-1.169,-1.169,-1.169,-1.169,-1.169,0,-1.1323,-1.1342,-1.1368,-1.1401,-1.1424,-1.1431,-1.1459,-1.1477,-1.1506,-1.1532,-1.1557,-1.1594,-1.1626,-1.1653,-1.1686,-1.1702,-1.1708,-1.171,-1.1709,-1.1714,-1.1693,-1.1685,-1.1705,-1.1705,-1.1705,-1.1705,-1.1705,-1.1705,-1.1338,-1.1369,-1.1382,-1.1424,-1.1443,-1.1475,-1.149,-1.1512,-1.1533,-1.1573,-1.1599,-1.1616,-1.1643,-1.1678,-1.1708,-1.1715,-1.1727,-1.1728,-1.1737,-1.1717,-1.1715,-1.1713,-1.1706,-1.1731,-1.1731,-1.1756,-1.1756,-1.1757]},{"header":{"parameterUnit":"m.s-1","parameterCategory":1,"la1":30.2991,"la2":30.254,"lo1":-89.0895,"lo2":-89.0444,"dy":0.0017,"dx":0.0017,"nx":28,"ny":28,"refTime":"2024-05-04T21:00:00:Z","depth":0,"parameterNumber":3,"parameterNumberName":"V-component_of_WINDS"},"data":[0,0,0,0,0,0,0,0,0,0,0,0,0,0,0,0,0,0,0,0,0,0,0,0,0,0,0,0,0,0,0,0,0,0,0,0,0,0,0,0,0,0,0,0,0,0,0,0,0,0,0,0,0,0,0,0,0,0,3.9037,3.9038,0,3.9074,3.9074,3.9075,3.9024,3.9022,3.902,3.9018,3.9053,3.9056,3.9058,0,0,0,0,0,0,0,0,0,0,0,0,0,3.8919,3.8922,3.9037,3.9038,3.9038,3.9074,3.9074,3.9075,3.9024,3.9022,3.9019,3.9017,3.9052,3.9055,3.9059,0,0,0,0,0,0,0,0,0,0,0,0,0,3.8965,3.8923,3.9037,3.9017,3.9016,3.9074,3.9074,3.9075,3.9024,3.9022,3.9019,3.9016,3.9051,3.9055,3.9059,3.9138,0,0,3.9071,3.9073,0,0,0,0,0,0,0,0,3.8962,3.8969,3.9019,3.9018,3.9017,3.9041,3.9046,3.9096,3.9025,3.9021,3.9018,3.9015,3.9051,3.9055,3.9068,3.914,3.9141,3.9071,3.9074,3.9075,3.9077,0,0,0,0,0,0,0,3.8959,3.8967,3.9052,3.902,3.9019,3.9005,3.9009,3.9055,3.9051,3.9021,3.9017,3.9023,3.905,3.9064,3.9068,3.9142,3.9071,3.9075,3.9077,3.9079,3.9279,3.9282,0,0,0,0,0,0,3.8959,3.8965,3.905,3.9053,3.8982,3.9009,3.9013,3.9036,3.905,3.905,3.9025,3.902,3.9059,3.9064,3.9069,3.9162,3.9075,3.9079,3.9081,3.9276,3.928,3.9283,0,0,0,0,0,0,3.8957,3.8967,3.9049,3.9008,3.9017,3.9014,3.9041,3.9038,3.9053,3.9053,3.9052,3.904,3.9057,3.9064,3.9121,3.9163,3.9081,3.9084,3.9273,3.9277,3.9281,3.9349,0,0,0,0,0,0,3.8953,3.8966,3.8997,3.9009,3.902,3.9101,3.9043,3.9041,3.906,3.9054,3.9067,3.9067,3.9055,3.9116,3.9125,3.9167,3.9088,3.9269,3.9275,3.928,3.9343,3.9355,3.9366,0,0,0,0,0,3.8949,3.9014,3.8999,3.9009,3.9058,3.9104,3.911,3.9096,3.9063,3.9094,3.9094,3.9066,3.9157,3.9122,3.9132,3.9176,3.9266,3.9273,3.928,3.9338,3.9353,3.9365,0,0,0,0,0,0,3.9006,3.9015,3.8999,3.9069,3.9086,3.9095,3.9133,3.9112,3.9138,3.9131,3.9112,3.9115,3.9177,3.9182,3.9143,3.9252,3.9206,3.9215,3.9247,3.9261,3.9272,3.9269,3.9091,0,0,0,0,0,3.9027,3.9064,3.907,3.9132,3.9141,3.9136,3.9155,3.9143,3.916,3.9166,3.9171,3.9187,3.9219,3.924,3.927,3.9344,3.9345,3.9378,3.939,3.9399,3.9407,3.9446,3.946,3.9305,3.9305,3.9305,0,0,3.907,3.908,3.9104,3.9143,3.9155,3.9193,3.9142,3.9185,3.9212,3.9172,3.9227,3.9231,3.9248,3.9314,3.9343,3.932,3.945,3.9408,3.9415,3.9418,3.9454,3.9469,3.9482,3.9309,3.9309,3.9308,0,0,3.9168,3.918,3.9232,3.9246,3.9264,3.926,3.9273,3.9285,3.9287,3.9342,3.9312,3.9344,3.94,3.9413,3.9427,3.9531,3.9506,3.9541,3.9599,3.9638,3.965,3.9661,3.9697,3.971,3.9549,3.9549,3.9549,0,3.9219,3.9277,3.9262,3.9307,3.9324,3.9291,3.9343,3.9357,3.9384,3.9396,3.937,3.9439,3.9448,3.9517,3.9542,3.9555,3.9568,3.9539,3.965,3.966,3.967,3.9704,3.9718,3.9553,3.9552,3.9552,3.9552,0,3.9338,3.9378,3.9418,3.9447,3.9469,3.9517,3.9509,3.9533,3.9519,3.9518,3.9574,3.9583,3.9614,3.963,3.9616,3.9696,3.9681,3.9653,3.9606,3.9689,3.9721,3.9734,3.9559,3.9557,3.9556,3.9555,0,0,3.9472,3.9492,3.9507,3.952,3.9538,3.9568,3.9615,3.9646,3.9667,3.9687,3.9725,3.9773,3.9747,3.9763,3.975,3.9784,3.9865,3.9751,3.9751,3.9771,3.9953,3.9974,3.999,3.9849,3.9851,3.9853,3.9951,0,3.957,3.9652,3.964,3.9718,3.9755,3.9724,3.9764,3.978,3.978,3.981,3.9809,3.9843,3.9807,3.9816,3.9848,3.9848,3.9901,3.9841,3.9883,3.9885,3.9879,4.0006,4.0029,4.0121,3.9964,3.9966,3.9968,0,3.9695,3.9721,3.9803,3.9816,3.9831,3.9867,3.9895,3.9924,3.9941,3.9938,3.9956,3.9938,3.9984,3.9936,3.9999,3.9958,3.9975,3.9978,3.9981,3.9984,3.9931,4.0012,4.015,4.0164,3.9987,3.9986,3.9984,0,3.9784,3.9839,3.9895,3.9907,3.9923,3.995,3.9958,3.9971,3.9991,4.0015,4.0027,4.0055,4.0071,4.0093,4.0082,4.0049,4.0146,4.0098,4.0144,4.0145,4.0166,4.0165,4.0308,4.0178,4.0177,4.0177,4.0177,0,3.9894,3.9946,3.9936,3.997,4.0027,4.0012,4.0068,4.0072,4.0085,4.0119,4.0093,4.0126,4.011,4.0141,4.0133,4.0185,4.0193,4.0191,4.0188,4.0193,4.0193,4.0203,4.0196,4.0181,4.018,4.0179,4.0179,0,4.0003,3.9999,4.0058,4.0069,4.0073,4.0114,4.0123,4.0155,4.0153,4.0196,4.0206,4.0202,4.0238,4.0229,4.0268,4.0262,4.0328,4.0317,4.0323,4.032,4.0367,4.0363,4.0521,4.0541,4.0399,4.04,4.0401,0,4.0073,4.0112,4.0128,4.015,4.016,4.0195,4.0214,4.0202,4.0223,4.0245,4.0274,4.0307,4.0333,4.039,4.0391,4.042,4.0409,4.0463,4.0413,4.0417,4.041,4.0407,4.0411,4.0473,4.0474,4.0475,4.0477,0,4.0199,4.0195,4.0225,4.0255,4.0279,4.0302,4.0321,4.034,4.0329,4.0354,4.039,4.0411,4.045,4.0483,4.051,4.0517,4.0495,4.0492,4.0504,4.051,4.0511,4.051,4.0349,4.0489,4.0487,4.0486,4.0486,4.0485,4.029,4.0323,4.0339,4.0374,4.0388,4.0407,4.0437,4.044,4.047,4.0502,4.0492,4.0533,4.0548,4.0582,4.0592,4.0624,4.0603,4.0621,4.0625,4.063,4.0636,4.0507,4.0628,4.0628,4.0628,4.0627,4.0627,0,4.0413,4.0422,4.0454,4.0483,4.051,4.0489,4.0509,4.0533,4.057,4.0586,4.0612,4.0654,4.0685,4.0689,4.0719,4.0743,4.0734,4.0751,4.0749,4.0751,4.0652,4.0638,4.0758,4.0758,4.0758,4.0758,4.0758,4.0758,4.0481,4.0536,4.0534,4.0595,4.0603,4.0644,4.0658,4.0675,4.0688,4.0735,4.0762,4.0764,4.0775,4.0806,4.0834,4.0834,4.0846,4.0867,4.0863,4.0771,4.0758,4.0745,4.0732,4.087,4.087,4.0959,4.096,4.0961]}]]